Flag for Germany Weather past 2 weeks in Papenburg, Lower Saxony, Germany

Now
58 °F

Fog.


Feels Like: 57 °F
Forecast: 49 / 72 °F
Wind: 6 mph from East

Location: Emden-Koenigspolder


UV Index: 3 (Moderate)

Visibility: 3 mi


Pressure: 30.08 "Hg

Humidity: 87%

Dew point: 54 °F

Location of PapenburgLocation

Historic Weather in Papenburg

°F

Papenburg temperature yesterday

Maximum temperature yesterday: 67 °F (at 4:00 PM)
Minimum temperature yesterday: 40 °F (at 6:00 AM)
Average temperature yesterday: 55 °F

Past Weeks' High & Low Weather Summary

 TemperatureHumidityPressure
High68 °F (Apr 20, 3:00 PM)100% (Apr 12, 1:00 AM)30.46 "Hg (Apr 12, 1:00 AM)
Low31 °F (Apr 16, 7:00 AM)38% (Apr 17, 3:00 PM)29.70 "Hg (Apr 21, 7:00 PM)
Average50 °F80%30.05 "Hg
* Reported Apr 9 6:00 PM — Apr 24 6:00 PM, Papenburg, Weather by CustomWeather, © 2014

Note: Actual official high and low records may vary slightly from our data, if they occured in-between our weather recording intervals... More about our weather records

Advertising

Historic Weather Conditions — Data for Previous 24 hours

 ConditionsComfort  
Time TempWeatherWind HumidityBarometerVisibility
6:00 PM
Apr 24
59 °FFog.6 mph86%30.08 "Hg4 mi
5:00 PM61 °FFog.5 mph83%30.09 "Hg3 mi
4:00 PM60 °FFog.5 mph86%30.11 "Hg3 mi
3:00 PM59 °FFog.5 mph89%30.12 "Hg3 mi
2:00 PM58 °FFog.5 mph92%30.14 "Hg3 mi
1:00 PM56 °FFog.6 mph95%30.14 "Hg3 mi
12:00 PM55 °FLow clouds.6 mph97%30.15 "Hg2 mi
10:00 AM54 °FLow clouds.5 mph99%30.15 "Hg2 mi
9:00 AM54 °FLow clouds.6 mph99%30.15 "Hg2 mi
8:00 AM53 °FLow clouds.5 mph100%30.14 "Hg1 mi
7:00 AM52 °FLow clouds.5 mph100%30.14 "Hg1 mi
6:00 AM52 °FLow clouds.5 mph100%30.13 "Hg0 mi
4:00 AM52 °FLow clouds.3 mph99%30.14 "Hg0 mi
3:00 AM52 °FFog.3 mph97%30.14 "Hg1 mi
2:00 AM52 °FFog.3 mph97%30.14 "Hg1 mi
1:00 AM53 °FFog.5 mph95%30.14 "Hg2 mi
12:00 AM53 °FFog.2 mph96%30.15 "Hg2 mi
10:00 PM
Apr 23
56 °FFog.3 mph94%30.15 "Hg4 mi
9:00 PM56 °FFog.2 mph92%30.13 "Hg3 mi
8:00 PM59 °FOvercast.3 mph87%30.11 "Hg4 mi
7:00 PM62 °FOvercast.6 mph81%30.11 "Hg4 mi
Weather by CustomWeather, © 2014

See weather overview